Погода в Гурнесе

Греция     35°19′33″N   25°16′40″E
темп.,
°C
ветер,
м/с
пор.,
м/с
влажн.,
%
обл.,
%
осадки,
мм/ч
давл.,
гПа
погр.,
м
12 мая, ср
ср1200:00+13с13643 0.0 101391
03:00+12ссв12674 0.0 101281
06:00+12в12540 0.0 101231
09:00+19с12300 0.0 1012273
12:00+22ссз442714 0.0 1012531
15:00+24с3228100 0.0 1011758
18:00+22ссз113698 0.0 1011446
21:00+17ююв11520 0.0 101111
13 мая, чт
чт1300:00+17ююв22450 0.0 101114
03:00+16ю22410 0.0 101019
06:00+15ююв11422 0.0 101017
09:00+21вюв01350 0.0 1011343
12:00+24ссз33364 0.0 1011869
15:00+23ссз43455 0.0 1011809
18:00+21с32545 0.0 1012507
21:00+16ссв11782 0.0 101312
14 мая, пт
пт1400:00+15ююв127625 0.0 101324
03:00+15ююв116824 0.0 101320
06:00+15вюв116835 0.0 101320
09:00+21ссв11420 0.0 1014400
12:00+25ссз22320 0.0 10141127
15:00+22с43440 0.0 1016799
18:00+21с33470 0.0 1015484
21:00+16вюв11610 0.0 101526
15 мая, сб
сб1500:00+16ю22610 0.0 101520
03:00+16ююв22573 0.0 101424
06:00+16ю22500 0.0 101423
09:00+23ююз22316 0.0 1014294
12:00+26ссз22260 0.0 10131072
15:00+24с33390 0.0 1013832
18:00+22с2342100 0.0 1012448
21:00+18юв22539 0.0 101117
16 мая, вс
вс1600:00+18ю345651 0.0 101166
03:00+17ю3354100 0.0 100943
06:00+16юз125954 0.0 100951
09:00+20ссз23501 0.0 1009472
12:00+21ссз784799 0.0 1009939
15:00+20ссз895496 0.0 1009930
18:00+19ссз796212 0.0 1009855
21:00+16с257791 0.0 1009176